KB9ZI Weather Reports


time (UTC)temp
F
wind
direction
speed
knots
gust
knots
rain 1hr
in
rain 24hr
in
rain mn
in
humidity
%
barometer
mb
20260510221243 62 142 0.0 8.7 0.00 0.01 0.01 34 1019.9
20260510221232 62 142 0.0 8.7 0.00 0.01 0.01 33 1019.9
20260510221059 62 61 0.0 8.7 0.00 0.01 0.01 35 1019.9
20260510221037 62 248 0.0 8.7 0.00 0.01 0.01 35 1019.9
20260510221025 62 8 0.0 8.7 0.00 0.01 0.01 35 1019.8
20260510220635 62 120 0.0 8.7 0.00 0.01 0.01 37 1019.9
20260510220434 62 152 0.0 8.7 0.00 0.01 0.01 34 1019.7
20260510220235 62 42 0.0 5.2 0.00 0.01 0.01 35 1019.8
20260510220040 62 228 0.0 0.0 0.00 0.01 0.01 38 1019.9
20260510220035 62 28 0.0 0.0 0.00 0.01 0.01 35 1019.8
20260510215957 62 240 0.0 0.0 0.00 0.01 0.01 35 1019.8
20260510215638 62 231 0.0 5.2 0.00 0.01 0.01 36 1019.8
20260510215432 61 234 0.0 7.8 0.00 0.01 0.01 37 1019.8
20260510215335 61 234 0.0 7.8 0.00 0.01 0.01 37 1019.9
20260510215232 61 234 0.0 7.8 0.00 0.01 0.01 37 1019.9
20260510215030 61 234 0.0 7.8 0.00 0.01 0.01 37 1019.9
20260510214950 62 245 0.0 7.8 0.00 0.01 0.01 33 1020.0
20260510214934 62 235 0.0 7.8 0.00 0.01 0.01 34 1019.9
20260510214631 62 228 0.0 7.8 0.00 0.01 0.01 35 1019.9
20260510214430 62 251 0.0 7.8 0.00 0.01 0.01 36 1020.0
20260510214230 62 217 0.0 7.8 0.00 0.01 0.01 35 1020.0
20260510214204 62 281 0.0 7.8 0.00 0.01 0.01 35 1020.0
20260510214029 62 276 0.0 7.8 0.00 0.01 0.01 35 1019.9
20260510213829 62 245 0.0 7.8 0.00 0.01 0.01 36 1019.8
20260510213706 62 262 0.0 7.8 0.00 0.01 0.01 37 1019.8
20260510213630 61 237 0.0 7.8 0.00 0.01 0.01 37 1019.8
20260510213505 61 41 0.0 5.2 0.00 0.01 0.01 36 1019.8
20260510213451 61 233 0.0 7.8 0.00 0.01 0.01 37 1019.9
20260510213423 61 39 0.0 5.2 0.00 0.01 0.01 37 1019.8
20260510213130 61 32 0.0 5.2 0.00 0.01 0.01 37 1019.7
20260510212826 61 103 0.0 5.2 0.00 0.01 0.01 36 1019.8
20260510212704 61 250 0.0 6.1 0.00 0.01 0.01 35 1019.9
20260510212626 61 248 0.0 7.8 0.00 0.01 0.01 38 1019.8
20260510212459 61 245 0.0 9.6 0.00 0.01 0.01 40 1019.8
20260510212447 61 55 0.0 9.6 0.00 0.01 0.01 38 1019.9
20260510212422 61 238 0.0 9.6 0.00 0.01 0.01 40 1019.8
20260510212026 61 224 0.0 9.6 0.00 0.01 0.01 35 1019.8
20260510211825 61 240 0.0 9.6 0.00 0.01 0.01 37 1019.9
20260510211702 62 252 0.0 9.6 0.00 0.01 0.01 38 1019.8
20260510211623 62 241 0.0 9.6 0.00 0.01 0.01 38 1019.8
20260510211550 62 212 0.0 5.2 0.00 0.01 0.01 41 1019.7
20260510211459 62 269 0.0 5.2 0.00 0.01 0.01 38 1019.8
20260510211424 61 269 0.0 5.2 0.00 0.01 0.01 38 1019.8
20260510211022 61 106 0.0 5.2 0.00 0.01 0.01 40 1019.6
20260510210824 61 265 0.0 6.1 0.00 0.01 0.01 40 1019.7
20260510210701 61 234 0.0 6.1 0.00 0.01 0.01 40 1019.6
20260510210621 61 159 0.0 6.1 0.00 0.01 0.01 37 1019.7
20260510210459 61 0 0.0 8.7 0.00 0.01 0.01 38 1019.7
20260510210446 62 159 0.0 8.7 0.00 0.01 0.01 36 1019.7
20260510210419 61 0 0.0 8.7 0.00 0.01 0.01 38 1019.7
20260510210015 62 52 0.0 8.7 0.00 0.01 0.01 39 1019.8
20260510205914 61 250 0.0 8.7 0.00 0.01 0.01 38 1019.8
20260510205701 61 251 0.0 8.7 0.00 0.01 0.01 39 1019.7
20260510205615 62 247 0.0 8.7 0.00 0.01 0.01 40 1019.7
20260510205456 61 48 0.0 5.2 0.00 0.01 0.01 40 1019.6
20260510205443 61 261 0.0 5.2 0.00 0.01 0.01 40 1019.7
20260510205416 61 58 0.0 5.2 0.00 0.01 0.01 40 1019.6
20260510205109 61 94 0.0 5.2 0.00 0.01 0.01 39 1019.8
20260510204813 61 262 0.0 5.2 0.00 0.01 0.01 40 1019.8
20260510204700 60 240 0.0 5.2 0.00 0.01 0.01 40 1019.8
20260510204614 61 226 0.0 5.2 0.00 0.01 0.01 38 1019.8
20260510204449 62 250 0.0 6.1 0.00 0.01 0.01 41 1019.9
20260510204439 61 238 0.0 6.1 0.00 0.01 0.01 38 1019.8
20260510204411 62 261 0.0 6.1 0.00 0.01 0.01 41 1019.9
20260510204012 62 87 0.0 6.1 0.00 0.01 0.01 41 1019.9
20260510203809 62 237 0.0 6.1 0.00 0.01 0.01 36 1020.0
20260510203652 62 138 0.0 6.1 0.00 0.01 0.01 39 1020.0
20260510203609 62 113 0.0 6.1 0.00 0.01 0.01 39 1019.9
20260510203538 62 0 0.0 5.2 0.00 0.01 0.01 38 1019.8
20260510203451 62 56 0.0 5.2 0.00 0.01 0.01 39 1019.8
20260510203416 62 56 0.0 5.2 0.00 0.01 0.01 39 1019.8
20260510203007 62 1 0.0 5.2 0.00 0.01 0.01 39 1019.8
20260510202806 62 1 0.0 5.2 0.00 0.01 0.01 41 1019.9
20260510202654 61 259 0.0 5.2 0.00 0.01 0.01 39 1019.9
20260510202608 62 269 0.0 5.2 0.00 0.01 0.01 37 1019.9
20260510202405 62 75 0.0 3.5 0.00 0.01 0.01 43 1019.9
20260510202208 62 178 0.0 5.2 0.00 0.01 0.01 36 1019.9
20260510202155 62 137 0.0 5.2 0.00 0.01 0.01 36 1019.9
20260510201959 62 306 0.0 5.2 0.00 0.01 0.01 44 1019.9
20260510201857 61 217 0.0 5.2 0.00 0.01 0.01 40 1019.9
20260510201653 61 202 0.0 5.2 0.00 0.01 0.01 37 1019.8
20260510201557 61 202 0.0 5.2 0.00 0.01 0.01 40 1019.9
20260510201452 62 238 0.0 8.7 0.00 0.01 0.01 39 1020.0
20260510201154 62 257 0.0 8.7 0.00 0.01 0.01 42 1020.1
20260510200954 62 213 0.0 8.7 0.00 0.01 0.01 41 1020.0
20260510200946 61 13 0.0 8.7 0.00 0.01 0.01 40 1020.0
20260510200921 61 243 0.0 8.7 0.00 0.01 0.01 41 1019.9
20260510200553 61 130 0.0 8.7 0.00 0.01 0.01 41 1020.0
20260510200352 61 144 0.0 5.2 0.00 0.01 0.01 41 1020.1
20260510200154 62 0 0.0 5.2 0.00 0.01 0.01 39 1019.9
20260510200027 62 331 0.0 5.2 0.00 0.01 0.01 41 1019.8
20260510195950 62 180 0.0 5.2 0.00 0.01 0.01 38 1019.9
20260510195944 62 0 0.0 5.2 0.00 0.01 0.01 40 1019.8
20260510195548 62 56 0.0 5.2 0.00 0.01 0.01 40 1019.9
20260510195348 62 210 0.0 11.3 0.00 0.01 0.01 39 1019.9
20260510195153 62 235 0.0 11.3 0.00 0.01 0.01 41 1019.9
20260510195148 62 234 0.0 11.3 0.00 0.01 0.01 41 1019.8
20260510194949 62 238 0.0 11.3 0.00 0.01 0.01 43 1019.8
20260510194943 61 254 0.0 11.3 0.00 0.01 0.01 40 1019.9
20260510194916 61 250 0.0 11.3 0.00 0.01 0.01 41 1019.9
20260510194545 61 224 0.0 11.3 0.00 0.01 0.01 38 1020.0
20260510194344 61 243 0.0 8.7 0.00 0.01 0.01 40 1020.0
20260510194243 61 240 0.0 6.1 0.00 0.01 0.01 46 1019.9
20260510194151 61 238 0.0 6.1 0.00 0.01 0.01 46 1020.1
20260510193944 60 262 0.0 9.6 0.00 0.01 0.01 40 1019.9
20260510193741 60 271 0.0 9.6 0.00 0.01 0.01 41 1019.8
20260510193651 60 271 0.0 9.6 0.00 0.01 0.01 42 1019.8
20260510193542 60 224 0.0 9.6 0.00 0.01 0.01 40 1020.0
20260510193341 60 31 0.0 9.6 0.00 0.01 0.01 41 1019.9
20260510193155 61 290 0.0 9.6 0.00 0.01 0.01 42 1020.1
20260510193142 61 269 0.0 9.6 0.00 0.01 0.01 42 1019.9
20260510192941 62 238 0.0 6.1 0.00 0.01 0.01 44 1020.0
20260510192837 62 234 0.0 4.3 0.00 0.01 0.01 39 1020.0
20260510192652 62 203 0.0 4.3 0.00 0.01 0.01 42 1020.0
20260510192536 62 162 0.0 8.7 0.00 0.01 0.01 42 1020.0
20260510192341 61 290 0.0 9.6 0.00 0.01 0.01 44 1020.0
20260510192151 60 118 0.0 9.6 0.00 0.01 0.01 44 1020.0
20260510192134 60 87 0.0 9.6 0.00 0.01 0.01 47 1019.9
20260510191935 60 237 0.0 9.6 0.00 0.01 0.01 44 1019.8
20260510191714 59 244 0.0 9.6 0.00 0.01 0.01 43 1020.0
20260510191651 59 254 0.0 9.6 0.00 0.01 0.01 43 1020.0
20260510191506 59 216 0.0 9.6 0.00 0.01 0.01 41 1020.0
20260510191306 60 185 0.0 6.1 0.00 0.01 0.01 45 1020.1
20260510191209 60 7 0.0 6.1 0.00 0.01 0.01 40 1020.1
20260510191152 60 45 0.0 6.1 0.00 0.01 0.01 44 1020.1
20260510190908 61 192 0.0 6.1 0.00 0.01 0.01 41 1020.1
20260510190706 61 45 0.0 6.1 0.00 0.01 0.01 44 1019.9
20260510190650 61 141 0.0 6.1 0.00 0.01 0.01 44 1020.1
20260510190507 61 109 0.0 6.1 0.00 0.01 0.01 44 1020.0
20260510190303 62 241 0.0 6.1 0.00 0.01 0.01 45 1020.1
20260510190151 62 355 0.0 6.1 0.00 0.01 0.01 44 1020.1
20260510190100 62 244 0.0 6.1 0.00 0.01 0.01 46 1020.1
20260510185900 61 41 0.0 6.1 0.00 0.01 0.01 47 1020.0
20260510185703 61 220 0.0 6.1 0.00 0.01 0.01 44 1020.1
20260510185650 61 185 0.0 5.2 0.00 0.01 0.01 47 1020.1
20260510185500 61 82 0.0 5.2 0.00 0.01 0.01 42 1020.1
20260510185439 61 199 0.0 9.6 0.00 0.01 0.01 43 1020.1
20260510185419 61 83 0.0 9.6 0.00 0.01 0.01 44 1020.0
20260510185100 61 312 0.0 9.6 0.00 0.01 0.01 50 1020.1
20260510184859 61 250 0.0 9.6 0.00 0.01 0.01 48 1020.1
20260510184659 60 288 0.0 9.6 0.00 0.01 0.01 47 1020.1
20260510184647 60 264 0.0 9.6 0.00 0.01 0.01 47 1020.0
20260510184517 60 220 0.0 5.2 0.00 0.01 0.01 46 1020.1
20260510184457 59 11 0.0 9.6 0.00 0.01 0.01 41 1020.0
20260510184439 60 251 0.0 5.2 0.00 0.01 0.01 48 1020.1
20260510184056 60 226 0.0 5.2 0.00 0.01 0.01 48 1020.1
20260510183853 59 113 0.0 3.5 0.00 0.01 0.01 46 1020.0
20260510183653 58 220 0.0 5.2 0.00 0.01 0.01 47 1020.1
20260510183638 58 185 0.0 5.2 0.00 0.01 0.01 47 1020.2
20260510183454 58 117 0.0 6.1 0.00 0.01 0.01 47 1020.2
20260510183427 58 275 0.0 6.1 0.00 0.01 0.01 48 1020.2
20260510183408 58 168 0.0 6.1 0.00 0.01 0.01 44 1020.2
20260510183039 59 275 0.0 6.1 0.00 0.01 0.01 49 1020.2
20260510182840 59 264 0.0 6.1 0.00 0.01 0.01 44 1020.2
20260510182742 60 266 0.0 7.8 0.00 0.01 0.01 46 1020.2
20260510182632 60 266 0.0 7.8 0.00 0.01 0.01 46 1020.2
20260510182437 60 97 0.0 7.8 0.00 0.01 0.01 45 1020.2
20260510182428 59 240 0.0 8.7 0.00 0.01 0.01 46 1020.2
20260510182400 60 252 0.0 8.7 0.00 0.01 0.01 50 1020.1
20260510182034 59 245 0.0 8.7 0.00 0.01 0.01 45 1020.1
20260510181834 60 209 0.0 8.7 0.00 0.01 0.01 44 1020.1
20260510181633 60 238 0.0 8.7 0.00 0.01 0.01 53 1020.1
20260510181433 59 55 0.0 8.7 0.00 0.01 0.01 46 1020.0
20260510181232 59 235 0.0 6.1 0.00 0.01 0.01 46 1020.1
20260510181134 59 235 0.0 6.1 0.00 0.01 0.01 51 1020.2
20260510181030 59 0 0.0 6.1 0.00 0.01 0.01 47 1020.2
20260510180924 59 227 0.0 8.7 0.00 0.01 0.01 45 1020.2
20260510180907 59 227 0.0 6.1 0.00 0.01 0.01 45 1020.1
20260510180844 59 227 0.0 8.7 0.00 0.01 0.01 45 1020.2
20260510180419 59 41 0.0 8.7 0.00 0.01 0.01 46 1020.2
20260510180217 60 288 0.0 8.7 0.00 0.01 0.01 46 1020.2
20260510180104 60 252 0.0 8.7 0.00 0.01 0.01 49 1020.2
20260510180018 60 262 0.0 8.7 0.00 0.01 0.01 47 1020.2
20260510175950 60 240 0.0 8.7 0.00 0.01 0.01 45 1020.1
20260510175905 59 216 0.0 8.7 0.00 0.01 0.01 51 1020.1
20260510175824 59 216 0.0 8.7 0.00 0.01 0.01 51 1020.1
20260510175415 59 0 0.0 8.7 0.00 0.01 0.01 46 1020.1
20260510175215 59 272 0.0 8.7 0.00 0.01 0.01 48 1020.2
20260510175103 59 248 0.0 8.7 0.00 0.01 0.01 46 1020.2
20260510175022 59 224 0.0 8.7 0.00 0.01 0.01 46 1020.2
20260510174907 59 0 0.0 7.8 0.00 0.01 0.01 46 1020.1
20260510174847 59 329 0.0 7.8 0.00 0.01 0.01 48 1020.2
20260510174820 59 0 0.0 7.8 0.00 0.01 0.01 46 1020.1
20260510174409 59 6 0.0 7.8 0.00 0.01 0.01 51 1020.1
20260510174307 59 251 0.0 7.8 0.00 0.01 0.01 48 1020.2
20260510174104 59 199 0.0 5.2 0.00 0.01 0.01 43 1020.2
20260510174007 60 245 0.0 5.2 0.00 0.01 0.01 46 1020.3
20260510173809 60 66 0.0 5.2 0.00 0.01 0.01 53 1020.2
20260510173604 59 223 0.0 5.2 0.00 0.01 0.01 48 1020.1
20260510173408 58 135 0.0 5.2 0.00 0.01 0.01 48 1020.1
20260510173206 58 226 0.0 5.2 0.00 0.01 0.01 48 1020.2
20260510173103 58 265 0.0 4.3 0.00 0.01 0.01 47 1020.2
20260510173005 58 18 0.0 3.5 0.00 0.01 0.01 45 1020.1
20260510172907 59 223 0.0 3.5 0.00 0.01 0.01 47 1020.2
20260510172847 58 0 0.0 3.5 0.00 0.01 0.01 49 1020.1
20260510172817 59 223 0.0 3.5 0.00 0.01 0.01 47 1020.2
20260510172404 58 217 0.0 3.5 0.00 0.01 0.01 51 1020.1
20260510172306 59 251 0.0 4.3 0.00 0.01 0.01 47 1020.1
20260510172103 59 251 0.0 4.3 0.00 0.01 0.01 47 1020.0
20260510171956 59 251 0.0 4.3 0.00 0.01 0.01 47 1020.1
20260510171856 58 68 0.0 4.3 0.00 0.01 0.01 49 1020.1
20260510171837 58 161 0.0 4.3 0.00 0.01 0.01 50 1020.1
20260510171806 58 68 0.0 4.3 0.00 0.01 0.01 49 1020.1
20260510171355 58 212 0.0 4.3 0.00 0.01 0.01 46 1020.1
20260510171154 58 210 0.0 4.3 0.00 0.01 0.01 50 1020.1
20260510171052 58 210 0.0 4.3 0.00 0.01 0.01 50 1020.0
20260510170955 58 210 0.0 4.3 0.00 0.01 0.01 50 1020.0
20260510170847 58 0 0.0 6.1 0.00 0.01 0.01 52 1020.0
20260510170826 58 0 0.0 6.1 0.00 0.01 0.01 52 1020.2
20260510170814 58 94 0.0 4.3 0.00 0.01 0.01 54 1020.0
20260510170353 58 0 0.0 6.1 0.00 0.01 0.01 52 1020.0
20260510170153 58 0 0.0 6.1 0.00 0.01 0.01 52 1020.1
20260510170008 57 16 0.0 6.1 0.00 0.01 0.01 49 1020.1
20260510165954 57 94 0.0 6.1 0.00 0.01 0.01 52 1020.1
20260510165753 57 262 0.0 6.1 0.00 0.01 0.01 50 1020.2
20260510165554 58 274 0.0 6.1 0.00 0.01 0.01 50 1020.2
20260510165508 58 243 0.0 6.1 0.00 0.01 0.01 50 1020.2
20260510165353 58 258 0.0 5.2 0.00 0.01 0.01 50 1020.3
20260510165151 59 240 0.0 6.1 0.00 0.01 0.01 53 1020.2
20260510165005 58 240 0.0 6.1 0.00 0.01 0.01 55 1020.2
20260510164954 57 240 0.0 6.1 0.00 0.01 0.01 55 1020.2
20260510164755 57 238 0.0 6.1 0.00 0.01 0.01 50 1020.3
20260510164556 58 281 0.0 6.1 0.00 0.01 0.01 50 1020.2
20260510164511 58 27 0.0 6.1 0.00 0.01 0.01 50 1020.2
20260510164355 58 20 0.0 6.1 0.00 0.01 0.01 51 1020.2
20260510164157 58 228 0.0 5.2 0.00 0.01 0.01 47 1020.1
20260510164003 57 247 0.0 5.2 0.00 0.01 0.01 50 1020.2
20260510163949 57 247 0.0 5.2 0.00 0.01 0.01 50 1020.2
20260510163847 57 276 0.0 5.2 0.00 0.01 0.01 51 1020.3
20260510163548 57 62 0.0 5.2 0.00 0.01 0.01 52 1020.2
20260510163502 57 121 0.0 5.2 0.00 0.01 0.01 50 1020.2
20260510163347 56 288 0.0 5.2 0.00 0.01 0.01 47 1020.3
20260510163149 57 235 0.0 5.2 0.00 0.01 0.01 48 1020.1
20260510163001 57 221 0.0 3.5 0.00 0.01 0.01 48 1020.1
20260510162947 57 149 0.0 3.5 0.00 0.01 0.01 48 1020.2
20260510162747 57 78 0.0 3.5 0.00 0.01 0.01 47 1020.1
20260510162546 58 54 0.0 3.5 0.00 0.01 0.01 47 1020.1
20260510162459 58 111 0.0 3.5 0.00 0.01 0.01 47 1020.1
20260510162348 58 296 0.0 3.5 0.00 0.01 0.01 52 1020.1
20260510162246 57 348 0.0 3.5 0.00 0.01 0.01 51 1020.1
20260510161959 57 351 0.0 3.5 0.00 0.01 0.01 48 1020.0
20260510161947 57 351 0.0 3.5 0.00 0.01 0.01 48 1020.1
20260510161744 57 55 0.0 3.5 0.00 0.01 0.01 49 1020.1
20260510161544 57 257 0.0 3.5 0.00 0.01 0.01 51 1020.1
20260510161457 57 158 0.0 3.5 0.00 0.01 0.01 48 1020.1
20260510161345 57 127 0.0 3.5 0.00 0.01 0.01 50 1020.1
20260510161256 57 8 0.0 4.3 0.00 0.01 0.01 55 1020.1
20260510161237 57 56 0.0 4.3 0.00 0.01 0.01 51 1020.1
20260510160942 57 20 0.0 4.3 0.00 0.01 0.01 55 1020.1
20260510160803 56 289 0.0 4.3 0.00 0.01 0.01 50 1020.0
20260510160753 56 221 0.0 4.3 0.00 0.01 0.01 51 1020.0
20260510160724 56 252 0.0 4.3 0.00 0.01 0.01 54 1020.0
20260510160439 56 213 0.0 4.3 0.00 0.01 0.01 49 1019.9
20260510160138 56 285 0.0 4.3 0.00 0.01 0.01 54 1019.9
20260510155955 56 39 0.0 4.3 0.00 0.01 0.01 50 1019.9
20260510155935 56 39 0.0 4.3 0.00 0.01 0.01 50 1020.0
20260510155755 55 258 0.0 3.5 0.00 0.01 0.01 51 1019.9
20260510155747 56 39 0.0 4.3 0.00 0.01 0.01 56 1019.9
20260510155720 55 258 0.0 3.5 0.00 0.01 0.01 50 1019.9
20260510155333 55 269 0.0 2.6 0.00 0.01 0.01 54 1019.8
20260510155130 55 269 0.0 2.6 0.00 0.01 0.01 51 1019.9
20260510154952 55 282 0.0 3.5 0.00 0.01 0.01 53 1019.9
20260510154932 55 259 0.0 3.5 0.00 0.01 0.01 53 1019.8
20260510154833 55 259 0.0 4.3 0.00 0.01 0.01 50 1019.9
20260510154744 56 51 0.0 4.3 0.00 0.01 0.01 50 1019.9
20260510154714 55 51 0.0 4.3 0.00 0.01 0.01 50 1019.9
20260510154309 56 34 0.0 4.3 0.00 0.01 0.01 50 1020.0
20260510154109 56 34 0.0 4.3 0.00 0.01 0.01 51 1020.0
20260510153954 56 147 0.0 4.3 0.00 0.01 0.01 51 1020.0
20260510153908 56 302 0.0 4.3 0.00 0.01 0.01 54 1020.0
20260510153708 55 220 0.0 3.5 0.00 0.01 0.01 55 1019.9
20260510153507 54 220 0.0 3.5 0.00 0.01 0.01 53 1019.9
20260510153454 54 220 0.0 3.5 0.00 0.01 0.01 53 1019.9
20260510153308 54 234 0.0 3.5 0.00 0.01 0.01 56 1019.8
20260510153107 54 243 0.0 4.3 0.00 0.01 0.01 52 1019.9
20260510153007 54 274 0.0 4.3 0.00 0.01 0.01 55 1019.9
20260510152953 54 274 0.0 4.3 0.00 0.01 0.01 53 1019.9
20260510152705 54 13 0.0 4.3 0.00 0.01 0.01 54 1019.9
20260510152504 54 179 0.0 5.2 0.00 0.01 0.01 53 1019.8
20260510152450 54 179 0.0 5.2 0.00 0.01 0.01 53 1019.8
20260510152307 55 49 0.0 5.2 0.00 0.01 0.01 51 1019.8
20260510152106 55 24 0.0 5.2 0.00 0.01 0.01 53 1019.8
20260510151951 55 38 0.0 5.2 0.00 0.01 0.01 53 1019.8
20260510151905 55 99 0.0 5.2 0.00 0.01 0.01 52 1019.8
20260510151702 55 99 0.0 5.2 0.00 0.01 0.01 52 1019.8
20260510151504 55 38 0.0 3.5 0.00 0.01 0.01 53 1019.8
20260510151451 55 82 0.0 3.5 0.00 0.01 0.01 51 1019.8
20260510151402 54 66 0.0 3.5 0.00 0.01 0.01 51 1019.7
20260510151100 54 39 0.0 3.5 0.00 0.01 0.01 53 1019.8
20260510150951 54 252 0.0 3.5 0.00 0.01 0.01 53 1019.8
20260510150859 54 252 0.0 3.5 0.00 0.01 0.01 54 1019.8
20260510150659 55 7 0.0 3.5 0.00 0.01 0.01 55 1019.9
20260510150503 55 41 0.0 3.5 0.00 0.01 0.01 53 1019.8
20260510150452 55 39 0.0 3.5 0.00 0.01 0.01 53 1019.8
20260510150258 55 51 0.0 3.5 0.00 0.01 0.01 52 1019.8
20260510150056 55 176 0.0 3.5 0.00 0.01 0.01 54 1019.8
20260510145951 55 176 0.0 3.5 0.00 0.01 0.01 55 1019.8
20260510145857 54 176 0.0 3.5 0.00 0.01 0.01 55 1019.9
20260510145751 54 176 0.0 3.5 0.00 0.01 0.01 56 1019.8
20260510145452 53 47 0.0 1.7 0.00 0.01 0.01 55 1019.8
20260510145301 53 47 0.0 1.7 0.00 0.01 0.01 56 1019.8
20260510145057 53 47 0.0 2.6 0.00 0.01 0.01 54 1019.7
20260510145005 54 41 0.0 6.1 0.00 0.01 0.01 55 1019.8
20260510144954 53 45 0.0 6.1 0.00 0.01 0.01 55 1019.7
20260510144758 54 17 0.0 6.1 0.00 0.01 0.01 56 1019.8
20260510144739 54 17 0.0 6.1 0.00 0.01 0.01 55 1019.8
20260510144708 54 17 0.0 6.1 0.00 0.01 0.01 56 1019.8
20260510144255 54 32 0.0 6.1 0.00 0.01 0.01 55 1019.9
20260510144055 53 38 0.0 6.1 0.00 0.01 0.01 56 1019.8
20260510143954 53 51 0.0 4.3 0.00 0.01 0.01 56 1019.8
20260510143857 53 319 0.0 4.3 0.00 0.01 0.01 56 1019.8
20260510143655 52 47 0.0 4.3 0.00 0.01 0.01 59 1019.8
20260510143456 52 47 0.0 4.3 0.00 0.01 0.01 56 1019.7
20260510143357 52 97 0.0 2.6 0.00 0.01 0.01 56 1019.8
20260510143257 52 66 0.0 1.7 0.00 0.01 0.01 58 1019.8
20260510143224 52 66 0.0 1.7 0.00 0.01 0.01 58 1019.8
20260510142855 52 68 0.0 2.6 0.00 0.01 0.01 58 1019.8
20260510142655 51 68 0.0 2.6 0.00 0.01 0.01 60 1019.8
20260510142458 51 69 0.0 2.6 0.00 0.01 0.01 60 1019.6
20260510142258 51 69 0.0 3.5 0.00 0.01 0.01 58 1019.7
20260510142250 51 63 0.0 5.2 0.00 0.01 0.01 56 1019.7
20260510142223 51 69 0.0 4.3 0.00 0.01 0.01 56 1019.7
20260510141856 52 45 0.0 5.2 0.00 0.01 0.01 56 1019.7
20260510141754 52 45 0.0 5.2 0.00 0.01 0.01 56 1019.7
20260510141457 52 47 0.0 5.2 0.00 0.01 0.01 57 1019.7
20260510141301 52 89 0.0 2.6 0.00 0.01 0.01 56 1019.6
20260510141256 52 61 0.0 5.2 0.00 0.01 0.01 58 1019.7
20260510141224 52 25 0.0 5.2 0.00 0.01 0.01 59 1019.6
20260510140855 51 99 0.0 2.6 0.00 0.01 0.01 59 1019.6
20260510140655 51 71 0.0 2.6 0.00 0.01 0.01 58 1019.6
20260510140600 51 78 0.0 3.5 0.00 0.01 0.01 59 1019.6
20260510140455 51 78 0.0 3.5 0.00 0.01 0.01 59 1019.6
20260510140257 51 75 0.0 3.5 0.00 0.01 0.01 57 1019.6
20260510140055 51 75 0.0 3.5 0.00 0.01 0.01 58 1019.7
20260510135954 51 75 0.0 3.5 0.00 0.01 0.01 59 1019.5
20260510135856 51 75 0.0 3.5 0.00 0.01 0.01 59 1019.6
20260510135655 51 75 0.0 3.5 0.00 0.01 0.01 59 1019.7
20260510135455 51 76 0.0 3.5 0.00 0.01 0.01 60 1019.5
20260510135255 51 80 0.0 3.5 0.00 0.01 0.01 58 1019.6
20260510135057 51 38 0.0 3.5 0.00 0.01 0.01 59 1019.5
20260510135006 51 38 0.0 3.5 0.00 0.01 0.01 58 1019.5
20260510134954 51 38 0.0 3.5 0.00 0.01 0.01 58 1019.5
20260510134655 51 75 0.0 3.5 0.00 0.01 0.01 60 1019.6
20260510134455 51 73 0.0 2.6 0.00 0.01 0.01 60 1019.5
20260510134255 51 76 0.0 4.3 0.00 0.01 0.01 60 1019.5
20260510134055 51 76 0.0 4.3 0.00 0.01 0.01 61 1019.6
20260510133954 51 76 0.0 4.3 0.00 0.01 0.01 61 1019.6
20260510133855 51 76 0.0 4.3 0.00 0.01 0.01 61 1019.5
20260510133655 51 76 0.0 4.3 0.00 0.01 0.01 61 1019.5
20260510133455 51 76 0.0 4.3 0.00 0.01 0.01 60 1019.6
20260510133355 51 63 0.0 3.5 0.00 0.01 0.01 63 1019.5
20260510133055 50 49 0.0 3.5 0.00 0.01 0.01 63 1019.4
20260510132954 50 86 0.0 3.5 0.00 0.01 0.01 63 1019.5
20260510132856 50 86 0.0 3.5 0.00 0.01 0.01 64 1019.5
20260510132753 50 87 0.0 3.5 0.00 0.01 0.01 65 1019.5
20260510132455 49 141 0.0 1.7 0.00 0.01 0.01 67 1019.5
20260510132255 49 142 0.0 0.9 0.00 0.01 0.01 65 1019.5
20260510132105 49 142 0.0 1.7 0.00 0.01 0.01 65 1019.4
20260510132100 49 142 0.0 0.9 0.00 0.01 0.01 65 1019.6
20260510132039 49 142 0.0 0.9 0.00 0.01 0.01 65 1019.5
20260510132022 49 142 0.0 0.9 0.00 0.01 0.01 64 1019.4
20260510131742 49 142 0.0 1.7 0.00 0.01 0.01 64 1019.4
20260510131708 49 142 0.0 1.7 0.00 0.01 0.01 65 1019.4
20260510131255 48 142 0.0 2.6 0.00 0.01 0.01 66 1019.4
20260510131150 48 142 0.0 2.6 0.00 0.01 0.01 66 1019.4
20260510130954 48 142 0.0 2.6 0.00 0.01 0.01 66 1019.4
20260510130855 48 142 0.0 2.6 0.00 0.01 0.01 67 1019.4
20260510130656 48 142 0.0 2.6 0.00 0.01 0.01 68 1019.4
20260510130455 47 142 0.0 2.6 0.00 0.01 0.01 69 1019.3
20260510130257 47 197 0.0 0.9 0.00 0.01 0.01 69 1019.4
20260510130055 47 196 0.0 0.9 0.00 0.01 0.01 70 1019.4
20260510125955 47 197 0.0 1.7 0.00 0.01 0.01 70 1019.4
20260510125855 47 196 0.0 1.7 0.00 0.01 0.01 70 1019.4
20260510125654 47 196 0.0 1.7 0.00 0.01 0.01 71 1019.4
20260510125601 46 196 0.0 1.7 0.00 0.01 0.01 72 1019.3
20260510125456 46 196 0.0 1.7 0.00 0.01 0.01 72 1019.3
20260510125255 46 196 0.0 1.7 0.00 0.01 0.01 73 1019.3
20260510125054 46 196 0.0 1.7 0.00 0.01 0.01 74 1019.3
20260510124954 46 197 0.0 1.7 0.00 0.01 0.01 74 1019.3
20260510124855 46 197 0.0 1.7 0.00 0.01 0.01 74 1019.3
20260510124655 45 197 0.0 1.7 0.00 0.01 0.01 74 1019.3
20260510124455 45 234 0.0 1.7 0.00 0.01 0.01 75 1019.2
20260510124355 44 234 0.0 1.7 0.00 0.01 0.01 76 1019.2
20260510124054 44 234 0.0 0.0 0.00 0.01 0.01 75 1019.2
20260510123954 44 234 0.0 0.0 0.00 0.01 0.01 76 1019.2
20260510123855 44 234 0.0 0.0 0.00 0.01 0.01 76 1019.3
20260510123759 44 234 0.0 0.0 0.00 0.01 0.01 77 1019.2
20260510123744 44 234 0.0 0.0 0.00 0.01 0.01 77 1019.2
20260510123709 44 234 0.0 0.0 0.00 0.01 0.01 77 1019.2
20260510123256 43 234 0.0 0.0 0.00 0.01 0.01 78 1019.2
20260510123247 43 234 0.0 0.0 0.00 0.01 0.01 79 1019.1
20260510123223 43 234 0.0 0.0 0.00 0.01 0.01 79 1019.1
20260510122855 43 234 0.0 0.0 0.00 0.01 0.01 79 1019.1
20260510122756 42 234 0.0 0.0 0.00 0.01 0.01 80 1019.1
20260510122457 42 234 0.0 0.0 0.00 0.01 0.01 81 1019.2
20260510122257 42 234 0.0 0.9 0.00 0.01 0.01 81 1019.1
20260510122241 42 234 0.0 0.9 0.00 0.01 0.01 81 1019.0
20260510122222 42 234 0.0 0.9 0.00 0.01 0.01 81 1019.1
20260510121857 41 234 0.0 0.9 0.00 0.01 0.01 82 1019.0
20260510121655 41 234 0.0 0.9 0.00 0.01 0.01 82 1019.0
20260510121447 41 234 0.0 0.9 0.00 0.01 0.01 82 1018.9
20260510121327 40 234 0.0 0.0 0.00 0.01 0.01 83 1018.9
20260510121255 40 234 0.0 0.9 0.00 0.01 0.01 83 1018.9
20260510121241 40 234 0.0 0.0 0.00 0.01 0.01 84 1018.8
20260510120855 40 234 0.0 0.0 0.00 0.01 0.01 84 1018.8
20260510120655 40 234 0.0 0.0 0.00 0.01 0.01 84 1018.9
20260510120447 40 234 0.0 0.0 0.00 0.01 0.01 84 1018.7
20260510120319 40 234 0.0 0.0 0.00 0.01 0.01 84 1018.7
20260510120255 40 234 0.0 0.0 0.00 0.01 0.01 84 1018.7
20260510120236 39 234 0.0 0.0 0.00 0.01 0.01 84 1018.6
20260510115855 39 234 0.0 0.0 0.00 0.01 0.01 84 1018.6
20260510115655 39 234 0.0 0.0 0.00 0.01 0.01 84 1018.6
20260510115444 39 234 0.0 0.0 0.00 0.01 0.01 84 1018.6
20260510115255 39 234 0.0 0.0 0.00 0.01 0.01 84 1018.4
20260510115238 39 234 0.0 0.0 0.00 0.01 0.01 84 1018.4
20260510115221 39 234 0.0 0.0 0.00 0.01 0.01 84 1018.4
20260510114855 39 234 0.0 0.0 0.00 0.01 0.01 84 1018.4
20260510114655 39 234 0.0 0.0 0.00 0.01 0.01 84 1018.4
20260510114559 39 234 0.0 0.0 0.00 0.01 0.01 84 1018.4
20260510114442 39 234 0.0 0.0 0.00 0.01 0.01 84 1018.3
20260510114301 39 234 0.0 0.0 0.00 0.01 0.01 84 1018.3
20260510114256 39 234 0.0 0.0 0.00 0.01 0.01 84 1018.4
20260510114229 39 234 0.0 0.0 0.00 0.01 0.01 84 1018.3
20260510113855 39 234 0.0 0.0 0.00 0.01 0.01 84 1018.3
20260510113657 39 234 0.0 0.0 0.00 0.01 0.01 84 1018.3
20260510113438 39 234 0.0 0.0 0.00 0.01 0.01 84 1018.2
20260510113251 38 234 0.0 0.0 0.00 0.01 0.01 84 1018.2
20260510113235 38 234 0.0 0.0 0.00 0.01 0.01 84 1018.1
20260510113230 38 234 0.0 0.0 0.00 0.01 0.01 84 1018.1
20260510113212 38 234 0.0 0.0 0.00 0.01 0.01 84 1018.1
20260510112649 38 234 0.0 0.0 0.00 0.01 0.01 84 1018.1
20260510112546 38 234 0.0 0.0 0.00 0.01 0.01 84 1018.1
20260510112436 38 234 0.0 0.0 0.00 0.01 0.01 84 1018.1
20260510112248 38 234 0.0 0.0 0.00 0.01 0.01 84 1018.1
20260510112047 38 234 0.0 0.0 0.00 0.01 0.01 84 1018.1
20260510111931 38 234 0.0 0.0 0.00 0.01 0.01 84 1018.0
20260510111848 38 234 0.0 0.0 0.00 0.01 0.01 84 1018.0
20260510111644 38 234 0.0 0.0 0.00 0.01 0.01 84 1018.1
20260510111430 38 234 0.0 0.0 0.00 0.01 0.01 84 1018.1
20260510111240 38 234 0.0 0.0 0.00 0.01 0.01 84 1018.0
20260510111040 38 234 0.0 0.0 0.00 0.01 0.01 84 1018.0
20260510110940 38 234 0.0 0.0 0.00 0.01 0.01 84 1018.0
20260510110929 38 234 0.0 0.0 0.00 0.01 0.01 84 1018.0
20260510110639 38 234 0.0 0.0 0.00 0.01 0.01 84 1017.9
20260510110429 38 234 0.0 0.0 0.00 0.01 0.01 84 1018.0
20260510110238 38 234 0.0 0.9 0.00 0.01 0.01 84 1017.9
20260510110038 38 234 0.0 0.9 0.00 0.01 0.01 84 1017.9
20260510105929 38 234 0.0 0.9 0.00 0.01 0.01 84 1017.9
20260510105836 38 234 0.0 0.9 0.00 0.01 0.01 83 1017.9
20260510105634 38 234 0.0 0.9 0.00 0.01 0.01 83 1017.8
20260510105430 38 234 0.0 0.9 0.00 0.01 0.01 84 1017.9
20260510105338 38 234 0.0 0.9 0.00 0.01 0.01 83 1017.7
20260510105036 38 234 0.0 0.9 0.00 0.01 0.01 84 1017.8
20260510104929 38 234 0.0 0.9 0.00 0.01 0.01 84 1017.8
20260510104836 37 234 0.0 0.9 0.00 0.01 0.01 84 1017.8
20260510104635 37 234 0.0 0.9 0.00 0.01 0.01 84 1017.8
20260510104434 37 234 0.0 0.9 0.00 0.01 0.01 84 1017.7
20260510104206 37 234 0.0 0.9 0.00 0.01 0.01 84 1017.7
20260510104006 37 234 0.0 0.9 0.00 0.01 0.01 84 1017.7
20260510103902 37 234 0.0 0.9 0.00 0.01 0.01 84 1017.7
20260510103807 37 234 0.0 0.9 0.00 0.01 0.01 84 1017.8
20260510103604 37 234 0.0 0.9 0.00 0.01 0.01 83 1017.7
20260510103403 37 234 0.0 0.9 0.00 0.01 0.01 83 1017.7
20260510103305 37 234 0.0 1.7 0.00 0.01 0.01 83 1017.6
20260510103159 37 234 0.0 1.7 0.00 0.01 0.01 83 1017.6
20260510103136 37 234 0.0 1.7 0.00 0.01 0.01 83 1017.5
20260510102807 37 234 0.0 1.7 0.00 0.01 0.01 83 1017.5
20260510102554 37 234 0.0 1.7 0.00 0.01 0.01 83 1017.6
20260510102354 37 234 0.0 1.7 0.00 0.01 0.01 83 1017.6
20260510102157 37 234 0.0 0.9 0.00 0.01 0.01 82 1017.6
20260510102151 37 234 0.0 0.9 0.00 0.01 0.01 82 1017.4
20260510102126 37 234 0.0 0.9 0.00 0.01 0.01 82 1017.5
20260510101752 37 234 0.0 0.9 0.00 0.01 0.01 82 1017.4
20260510101657 37 234 0.0 0.9 0.00 0.01 0.01 82 1017.4
20260510101356 37 234 0.0 0.9 0.00 0.01 0.01 82 1017.4
20260510101156 37 234 0.0 0.9 0.00 0.01 0.01 82 1017.3
20260510101126 37 234 0.0 0.9 0.00 0.01 0.01 82 1017.3
20260510101104 37 234 0.0 0.9 0.00 0.01 0.01 82 1017.3
20260510100733 37 234 0.0 0.9 0.00 0.01 0.01 82 1017.2
20260510100532 37 234 0.0 1.7 0.00 0.01 0.01 82 1017.2
20260510100329 37 234 0.0 1.7 0.00 0.01 0.01 82 1017.2
20260510100132 37 234 0.0 1.7 0.00 0.01 0.01 82 1017.1
20260510100126 37 234 0.0 1.7 0.00 0.01 0.01 81 1017.0
20260510100100 37 234 0.0 1.7 0.00 0.01 0.01 82 1017.0
20260510095825 37 234 0.0 1.7 0.00 0.01 0.01 81 1017.0
20260510095524 37 234 0.0 0.9 0.00 0.01 0.01 82 1016.9
20260510095320 37 234 0.0 1.7 0.00 0.01 0.01 81 1017.0
20260510095125 38 234 0.0 1.7 0.00 0.01 0.01 81 1017.0
20260510094923 38 234 0.0 1.7 0.00 0.01 0.01 82 1017.0
20260510094826 38 234 0.0 1.7 0.00 0.01 0.01 82 1017.0
20260510094723 38 234 0.0 1.7 0.00 0.01 0.01 82 1016.9
20260510094622 38 234 0.0 0.0 0.00 0.01 0.01 83 1016.9
20260510094607 38 234 0.0 1.7 0.00 0.01 0.01 83 1016.9
20260510094536 38 234 0.0 0.0 0.00 0.01 0.01 83 1016.9
20260510094214 37 234 0.0 0.0 0.00 0.01 0.01 83 1016.9
20260510093916 37 234 0.0 0.0 0.00 0.01 0.01 83 1017.0
20260510093818 37 234 0.0 0.0 0.00 0.01 0.01 83 1017.1
20260510093715 37 234 0.0 0.0 0.00 0.01 0.01 83 1017.0
20260510093610 38 234 0.0 0.0 0.00 0.01 0.01 83 1016.8
20260510093555 37 234 0.0 0.0 0.00 0.01 0.01 83 1016.9
20260510093314 38 234 0.0 0.0 0.00 0.01 0.01 83 1016.8
20260510093115 37 234 0.0 0.0 0.00 0.01 0.01 82 1016.7
20260510092914 37 234 0.0 0.0 0.00 0.01 0.01 82 1016.8
20260510092818 37 234 0.0 0.0 0.00 0.01 0.01 82 1016.7
20260510092715 37 234 0.0 0.0 0.00 0.01 0.01 82 1016.8
20260510092610 37 234 0.0 0.0 0.00 0.01 0.01 82 1016.7
20260510092555 37 234 0.0 0.0 0.00 0.01 0.01 82 1016.6
20260510092310 37 234 0.0 0.0 0.00 0.01 0.01 82 1016.7
20260510092110 38 234 0.0 0.0 0.00 0.01 0.01 82 1016.7
20260510091910 38 234 0.0 0.0 0.00 0.01 0.01 82 1016.7
20260510091815 38 234 0.0 0.0 0.00 0.01 0.01 82 1016.7
20260510091805 38 234 0.0 0.0 0.00 0.01 0.01 82 1016.7
20260510091510 38 234 0.0 0.0 0.00 0.01 0.01 82 1016.8
20260510091310 38 234 0.0 0.0 0.00 0.01 0.01 82 1016.7
20260510091108 38 234 0.0 0.0 0.00 0.01 0.01 82 1016.8
20260510090907 38 234 0.0 0.0 0.00 0.01 0.01 82 1016.7
20260510090809 38 234 0.0 0.0 0.00 0.01 0.01 82 1016.7
20260510090708 38 234 0.0 0.0 0.00 0.01 0.01 82 1016.6
20260510090603 38 234 0.0 0.0 0.00 0.01 0.01 82 1016.7
20260510090548 38 234 0.0 0.0 0.00 0.01 0.01 82 1016.6
20260510090519 38 234 0.0 0.0 0.00 0.01 0.01 82 1016.7
20260510090206 38 234 0.0 0.0 0.00 0.01 0.01 82 1016.7
20260510085908 38 234 0.0 0.0 0.00 0.01 0.01 81 1016.6
20260510085807 38 234 0.0 0.0 0.00 0.01 0.01 81 1016.5
20260510085708 38 234 0.0 0.0 0.00 0.01 0.01 81 1016.5
20260510085611 38 234 0.0 0.0 0.00 0.01 0.01 81 1016.5
20260510085554 38 234 0.0 0.0 0.00 0.01 0.01 81 1016.5
20260510085522 38 234 0.0 0.0 0.00 0.01 0.01 81 1016.5
20260510085102 37 234 0.0 0.0 0.00 0.01 0.01 80 1016.4
20260510084903 37 234 0.0 0.0 0.00 0.01 0.01 80 1016.4
20260510084801 37 234 0.0 0.0 0.00 0.01 0.01 80 1016.3
20260510084704 37 234 0.0 0.0 0.00 0.01 0.01 79 1016.4
20260510084603 37 234 0.0 0.0 0.00 0.01 0.01 79 1016.4
20260510084546 37 234 0.0 0.0 0.00 0.01 0.01 79 1016.4
20260510084307 37 234 0.0 0.0 0.00 0.01 0.01 79 1016.4
20260510084032 37 234 0.0 0.0 0.00 0.01 0.01 79 1016.3
20260510083804 37 234 0.0 0.0 0.00 0.01 0.01 79 1016.4
20260510083634 37 234 0.0 0.0 0.00 0.01 0.01 79 1016.4
20260510083526 37 234 0.0 0.0 0.00 0.01 0.01 79 1016.4
20260510083305 37 234 0.0 0.0 0.00 0.01 0.01 79 1016.3
20260510083233 37 234 0.0 0.0 0.00 0.01 0.01 79 1016.3
20260510083030 37 234 0.0 0.0 0.00 0.01 0.01 79 1016.2
20260510082805 37 234 0.0 0.0 0.00 0.01 0.01 79 1016.2
20260510082631 37 234 0.0 0.0 0.00 0.01 0.01 79 1016.2
20260510082431 37 234 0.0 0.0 0.00 0.01 0.01 79 1016.2
20260510082306 38 234 0.0 0.0 0.00 0.01 0.01 78 1016.2
20260510082233 37 234 0.0 0.0 0.00 0.01 0.01 78 1016.1
20260510082008 38 234 0.0 0.0 0.00 0.01 0.01 78 1016.1
20260510081909 38 234 0.0 0.0 0.00 0.01 0.01 78 1016.1
20260510081754 38 234 0.0 0.0 0.00 0.01 0.01 78 1016.1
20260510081606 38 234 0.0 0.0 0.01 0.01 0.01 78 1016.1
20260510081403 38 234 0.0 0.0 0.01 0.01 0.01 78 1016.0
20260510081253 38 234 0.0 0.0 0.01 0.01 0.01 78 1016.0
20260510081204 38 234 0.0 0.0 0.01 0.01 0.01 77 1016.1
20260510081004 38 234 0.0 0.0 0.01 0.01 0.01 77 1016.0
20260510080809 38 234 0.0 0.0 0.01 0.01 0.01 77 1016.1
20260510080751 38 234 0.0 0.0 0.01 0.01 0.01 77 1016.1
20260510080606 38 234 0.0 0.0 0.01 0.01 0.01 77 1016.0
20260510080405 38 234 0.0 0.0 0.01 0.01 0.01 77 1016.0
20260510080310 38 234 0.0 0.0 0.01 0.01 0.01 77 1016.0
20260510080251 38 234 0.0 0.0 0.01 0.01 0.01 77 1016.1
20260510075956 38 234 0.0 0.0 0.01 0.00 0.01 78 1015.9
20260510075759 38 234 0.0 0.0 0.01 0.00 0.01 78 1016.0
20260510075534 38 234 0.0 0.0 0.01 0.00 0.01 78 1016.0
20260510075528 38 234 0.0 0.0 0.01 0.00 0.01 77 1016.0
20260510075504 38 234 0.0 0.0 0.01 0.00 0.01 78 1015.9
20260510075135 38 234 0.0 0.0 0.01 0.00 0.01 77 1015.9
20260510074906 38 234 0.0 0.0 0.01 0.00 0.01 77 1015.9
20260510074704 38 234 0.0 0.0 0.01 0.00 0.01 76 1015.9
20260510074610 38 234 0.0 0.0 0.01 0.00 0.01 76 1015.8
20260510074457 38 234 0.0 0.0 0.01 0.00 0.01 75 1015.9
20260510074435 38 234 0.0 0.0 0.01 0.00 0.01 75 1015.9
20260510074102 39 234 0.0 0.0 0.01 0.00 0.01 75 1015.8
20260510073904 39 234 0.0 0.0 0.01 0.00 0.01 75 1015.8
20260510073703 39 234 0.0 0.0 0.01 0.00 0.01 75 1015.8
20260510073659 39 234 0.0 0.0 0.01 0.00 0.01 75 1015.8
20260510073501 39 234 0.0 0.0 0.01 0.00 0.01 75 1015.9
20260510073431 39 234 0.0 0.0 0.01 0.00 0.01 75 1015.9
20260510073058 39 234 0.0 0.0 0.01 0.00 0.01 75 1015.9
20260510072955 39 234 0.0 0.0 0.01 0.00 0.01 75 1015.9
20260510072704 39 234 0.0 0.0 0.01 0.00 0.01 74 1015.9
20260510072658 39 234 0.0 0.0 0.01 0.00 0.01 74 1015.9
20260510072504 39 234 0.0 0.0 0.01 0.00 0.01 74 1015.9
20260510072458 39 234 0.0 0.0 0.01 0.00 0.01 74 1015.9
20260510072431 39 234 0.0 0.0 0.01 0.00 0.01 74 1015.9
20260510072054 39 234 0.0 0.0 0.01 0.00 0.01 74 1015.9
20260510071855 40 234 0.0 0.0 0.01 0.00 0.01 74 1015.9
20260510071703 40 234 0.0 0.0 0.00 0.00 0.00 74 1015.9
20260510071654 40 234 0.0 0.0 0.00 0.00 0.00 74 1015.9
20260510071452 40 234 0.0 0.0 0.00 0.00 0.00 74 1015.9
20260510071252 40 234 0.0 0.9 0.00 0.00 0.00 74 1015.8
20260510071201 40 234 0.0 0.9 0.00 0.00 0.00 74 1015.9
20260510071054 40 234 0.0 0.9 0.00 0.00 0.00 74 1015.9
20260510070952 40 234 0.0 0.9 0.00 0.00 0.00 74 1016.0
20260510070701 40 234 0.0 0.9 0.00 0.00 0.00 74 1015.9
20260510070654 40 234 0.0 0.9 0.00 0.00 0.00 74 1015.9
20260510070454 40 234 0.0 0.9 0.00 0.00 0.00 74 1016.0
20260510070254 40 234 0.0 0.9 0.00 0.00 0.00 74 1016.0
20260510070209 40 234 0.0 0.0 0.00 0.00 0.00 74 1016.0
20260510070054 40 234 0.0 0.0 0.00 0.00 0.00 74 1016.0
20260510065856 41 234 0.0 0.0 0.00 0.00 0.00 74 1015.9
20260510065701 41 234 0.0 0.0 0.00 0.00 0.00 74 1016.0
20260510065656 41 234 0.0 0.0 0.00 0.00 0.00 74 1016.0
20260510065455 41 234 0.0 0.0 0.00 0.00 0.00 74 1016.0
20260510065355 41 234 0.0 0.0 0.00 0.00 0.00 74 1015.9
20260510065202 41 234 0.0 0.0 0.00 0.00 0.00 74 1015.9
20260510065054 41 234 0.0 0.9 0.00 0.00 0.00 73 1015.9
20260510064856 41 234 0.0 0.9 0.00 0.00 0.00 73 1015.9
20260510064657 42 234 0.0 0.9 0.00 0.00 0.00 73 1015.9
20260510064454 42 234 0.0 0.9 0.00 0.00 0.00 73 1015.9
20260510064255 42 234 0.0 0.9 0.00 0.00 0.00 73 1015.8
20260510064158 42 234 0.0 0.9 0.00 0.00 0.00 72 1015.7
20260510064055 42 234 0.0 0.9 0.00 0.00 0.00 72 1015.8
20260510063854 42 234 0.0 0.0 0.00 0.00 0.00 70 1015.8
20260510063655 42 230 0.0 0.0 0.00 0.00 0.00 70 1015.8
20260510063556 43 230 0.0 0.0 0.00 0.00 0.00 69 1015.7
20260510063253 43 230 0.0 0.0 0.00 0.00 0.00 68 1015.8
20260510063202 43 230 0.0 0.0 0.00 0.00 0.00 68 1015.7
20260510063053 43 230 0.0 0.0 0.00 0.00 0.00 69 1015.8
20260510062853 43 230 0.0 0.0 0.00 0.00 0.00 69 1015.7
20260510062654 43 230 0.0 0.0 0.00 0.00 0.00 68 1015.7
20260510062510 44 230 0.0 0.0 0.00 0.00 0.00 68 1015.8
20260510062502 43 230 0.0 0.0 0.00 0.00 0.00 69 1015.8
20260510062435 44 230 0.0 0.0 0.00 0.00 0.00 68 1015.8
20260510062052 44 230 0.0 0.0 0.00 0.00 0.00 67 1015.8
20260510061953 44 230 0.0 0.0 0.00 0.00 0.00 67 1015.7
20260510061657 44 230 0.0 0.0 0.00 0.00 0.00 66 1015.8
20260510061453 44 230 0.0 0.0 0.00 0.00 0.00 66 1015.7
20260510061444 44 230 0.0 0.9 0.00 0.00 0.00 67 1015.7
20260510061421 44 230 0.0 0.9 0.00 0.00 0.00 67 1015.7
20260510061053 44 230 0.0 0.9 0.00 0.00 0.00 67 1015.8
20260510060853 44 230 0.0 0.9 0.00 0.00 0.00 68 1015.8
20260510060655 44 230 0.0 0.9 0.00 0.00 0.00 67 1015.8
20260510060522 44 230 0.0 0.0 0.00 0.00 0.00 65 1015.7
20260510060453 44 230 0.0 0.9 0.00 0.00 0.00 65 1015.8
20260510060439 44 230 0.0 0.0 0.00 0.00 0.00 66 1015.8
20260510060052 44 230 0.0 0.0 0.00 0.00 0.00 66 1015.8
20260510055852 44 230 0.0 0.0 0.00 0.00 0.00 65 1015.8
20260510055654 44 230 0.0 0.0 0.00 0.00 0.00 65 1015.7
20260510055453 44 230 0.0 0.0 0.00 0.00 0.00 63 1015.9
20260510055333 44 230 0.0 0.0 0.00 0.00 0.00 63 1015.7
20260510055152 44 230 0.0 0.0 0.00 0.00 0.00 62 1015.7
20260510055036 44 230 0.0 0.0 0.00 0.00 0.00 62 1015.7
20260510054835 45 230 0.0 0.0 0.00 0.00 0.00 62 1015.7
20260510054653 45 230 0.0 0.0 0.00 0.00 0.00 62 1015.7
20260510054640 45 230 0.0 0.0 0.00 0.00 0.00 62 1015.6
20260510054449 45 230 0.0 0.0 0.00 0.00 0.00 60 1015.6
20260510054442 45 230 0.0 0.0 0.00 0.00 0.00 62 1015.6
20260510054418 45 230 0.0 0.0 0.00 0.00 0.00 60 1015.6
20260510054032 46 230 0.0 0.0 0.00 0.00 0.00 60 1015.6
20260510053820 46 230 0.0 0.0 0.00 0.00 0.00 60 1015.5
20260510053652 46 230 0.0 0.0 0.00 0.00 0.00 60 1015.4
20260510053445 46 230 0.0 0.0 0.00 0.00 0.00 58 1015.3
20260510053438 46 230 0.0 0.0 0.00 0.00 0.00 59 1015.4
20260510053410 46 230 0.0 0.0 0.00 0.00 0.00 58 1015.3
20260510053019 47 230 0.0 0.0 0.00 0.00 0.00 58 1015.4
20260510052818 47 230 0.0 0.0 0.00 0.00 0.00 58 1015.4
20260510052623 47 230 0.0 0.0 0.00 0.00 0.00 58 1015.4
20260510052445 47 230 0.0 0.0 0.00 0.00 0.00 59 1015.4
20260510052437 47 230 0.0 0.0 0.00 0.00 0.00 60 1015.4
20260510052408 47 230 0.0 0.0 0.00 0.00 0.00 59 1015.4
20260510052015 47 230 0.0 0.0 0.00 0.00 0.00 58 1015.3
20260510051813 47 230 0.0 0.0 0.00 0.00 0.00 57 1015.3
20260510051650 47 230 0.0 0.0 0.00 0.00 0.00 57 1015.4
20260510051612 47 230 0.0 0.0 0.00 0.00 0.00 57 1015.4
20260510051440 48 230 0.0 0.0 0.00 0.00 0.00 57 1015.3
20260510051429 48 230 0.0 0.0 0.00 0.00 0.00 56 1015.4
20260510051402 48 230 0.0 0.0 0.00 0.00 0.00 57 1015.3
20260510051009 48 230 0.0 0.0 0.00 0.00 0.00 58 1015.4
20260510050810 48 230 0.0 0.0 0.00 0.00 0.00 53 1015.4
20260510050640 48 230 0.0 0.0 0.00 0.00 0.00 53 1015.4
20260510050409 48 230 0.0 0.9 0.00 0.00 0.00 53 1015.4
20260510050207 48 230 0.0 0.9 0.00 0.00 0.00 53 1015.4
20260510050143 48 230 0.0 0.9 0.00 0.00 0.00 53 1015.4
20260510050007 48 230 0.0 0.9 0.00 0.00 0.00 53 1015.4
20260510045931 48 230 0.0 0.9 0.00 0.00 0.00 53 1015.5
20260510045911 48 230 0.0 0.9 0.00 0.00 0.00 53 1015.4
20260510045608 48 230 0.0 0.9 0.00 0.00 0.00 53 1015.5
20260510045405 48 230 0.0 0.9 0.00 0.00 0.00 53 1015.4
20260510045205 48 230 0.0 0.9 0.00 0.00 0.00 54 1015.3
20260510045139 48 230 0.0 0.9 0.00 0.00 0.00 54 1015.4
20260510045113 48 230 0.0 0.9 0.00 0.00 0.00 54 1015.4
20260510044924 48 230 0.0 0.9 0.00 0.00 0.00 54 1015.5
20260510044908 48 230 0.0 0.9 0.00 0.00 0.00 53 1015.4
20260510044608 48 230 0.0 0.9 0.00 0.00 0.00 54 1015.5
20260510044405 49 230 0.0 0.9 0.00 0.00 0.00 54 1015.5
20260510044206 49 230 0.0 0.9 0.00 0.00 0.00 54 1015.5
20260510044134 49 230 0.0 0.9 0.00 0.00 0.00 54 1015.4
20260510043955 49 230 0.0 0.9 0.00 0.00 0.00 53 1015.4
20260510043919 49 230 0.0 0.9 0.00 0.00 0.00 54 1015.4
20260510043901 49 230 0.0 0.9 0.00 0.00 0.00 54 1015.4
20260510043559 49 230 0.0 0.9 0.00 0.00 0.00 54 1015.4
20260510043357 49 230 0.0 1.7 0.00 0.00 0.00 53 1015.4
20260510043133 49 230 0.0 1.7 0.00 0.00 0.00 53 1015.4
20260510042954 49 230 0.0 1.7 0.00 0.00 0.00 53 1015.2
20260510042754 49 230 0.0 1.7 0.00 0.00 0.00 53 1015.2
20260510042657 49 230 0.0 1.7 0.00 0.00 0.00 53 1015.3
20260510042630 49 230 0.0 1.7 0.00 0.00 0.00 53 1015.3
20260510042429 49 235 0.0 0.0 0.00 0.00 0.00 53 1015.2
20260510042420 49 235 0.0 0.9 0.00 0.00 0.00 54 1015.2
20260510042350 49 235 0.0 0.0 0.00 0.00 0.00 53 1015.2
20260510041956 49 235 0.0 0.0 0.00 0.00 0.00 53 1015.2
20260510041754 49 235 0.0 0.0 0.00 0.00 0.00 53 1015.2
20260510041629 49 235 0.0 0.0 0.00 0.00 0.00 53 1015.1
20260510041555 49 235 0.0 0.9 0.00 0.00 0.00 53 1015.1
20260510041426 49 235 0.0 0.9 0.00 0.00 0.00 52 1015.0
20260510041419 49 235 0.0 0.9 0.00 0.00 0.00 52 1015.1
20260510041349 49 235 0.0 0.9 0.00 0.00 0.00 52 1015.1
20260510041054 50 235 0.0 0.9 0.00 0.00 0.00 52 1015.1
20260510040753 50 235 0.0 0.9 0.00 0.00 0.00 52 1015.1
20260510040633 50 235 0.0 0.9 0.00 0.00 0.00 52 1015.0
20260510040551 50 235 0.0 0.9 0.00 0.00 0.00 52 1015.0
20260510040426 50 235 0.0 0.0 0.00 0.00 0.00 51 1015.0
20260510040417 50 235 0.0 0.9 0.00 0.00 0.00 51 1015.0
20260510040349 50 235 0.0 0.0 0.00 0.00 0.00 51 1015.0
20260510035951 50 235 0.0 0.9 0.00 0.00 0.00 52 1015.0
20260510035751 50 235 0.0 0.9 0.00 0.00 0.00 51 1015.0
20260510035634 50 235 0.0 0.9 0.00 0.00 0.00 49 1015.0
20260510035552 50 235 0.0 0.9 0.00 0.00 0.00 49 1015.0
20260510035356 50 235 0.0 0.9 0.00 0.00 0.00 49 1014.8
20260510035335 50 235 0.0 0.9 0.00 0.00 0.00 49 1014.8
20260510034951 51 235 0.0 0.9 0.00 0.00 0.00 50 1014.7
20260510034751 50 235 0.0 0.9 0.00 0.00 0.00 49 1014.7
20260510034616 50 235 0.0 0.9 0.00 0.00 0.00 49 1014.8
20260510034553 50 235 0.0 0.9 0.00 0.00 0.00 49 1014.8
20260510034350 50 235 0.0 0.9 0.00 0.00 0.00 50 1014.6
20260510034325 50 235 0.0 0.9 0.00 0.00 0.00 51 1014.7
20260510034115 50 235 0.0 0.9 0.00 0.00 0.00 51 1014.7
20260510033958 50 235 0.0 0.9 0.00 0.00 0.00 51 1014.7
20260510033754 51 235 0.0 0.9 0.00 0.00 0.00 50 1014.6
20260510033611 51 234 0.0 0.9 0.00 0.00 0.00 50 1014.7
20260510033555 51 234 0.0 0.9 0.00 0.00 0.00 49 1014.7
20260510033353 51 234 0.0 0.9 0.00 0.00 0.00 51 1014.6
20260510033154 51 234 0.0 0.9 0.00 0.00 0.00 50 1014.6
20260510033111 51 234 0.0 0.9 0.00 0.00 0.00 50 1014.6
20260510032954 51 234 0.0 2.6 0.00 0.00 0.00 50 1014.6
20260510032755 51 234 0.0 2.6 0.00 0.00 0.00 50 1014.5
20260510032658 51 234 0.0 2.6 0.00 0.00 0.00 51 1014.5
20260510032611 51 234 0.0 2.6 0.00 0.00 0.00 50 1014.5
20260510032353 51 234 0.0 2.6 0.00 0.00 0.00 51 1014.5
20260510032155 51 234 0.0 2.6 0.00 0.00 0.00 49 1014.5
20260510032111 51 234 0.0 2.6 0.00 0.00 0.00 49 1014.5
20260510031959 51 250 0.0 1.7 0.00 0.00 0.00 49 1014.4
20260510031732 51 250 0.0 1.7 0.00 0.00 0.00 49 1014.4
20260510031621 51 250 0.0 1.7 0.00 0.00 0.00 49 1014.4
20260510031611 51 250 0.0 1.7 0.00 0.00 0.00 49 1014.4
20260510031316 51 250 0.0 3.5 0.00 0.00 0.00 49 1014.3
20260510031110 51 250 0.0 3.5 0.00 0.00 0.00 48 1014.3
20260510030912 51 250 0.0 3.5 0.00 0.00 0.00 48 1014.3
20260510030709 51 250 0.0 3.5 0.00 0.00 0.00 48 1014.2
20260510030607 51 250 0.0 3.5 0.00 0.00 0.00 48 1014.2
20260510030509 51 235 0.0 2.6 0.00 0.00 0.00 48 1014.2
20260510030310 51 223 0.0 2.6 0.00 0.00 0.00 48 1014.2
20260510030109 51 223 0.0 1.7 0.00 0.00 0.00 48 1014.1
20260510030006 52 223 0.0 1.7 0.00 0.00 0.00 48 1014.1
20260510025707 52 223 0.0 1.7 0.00 0.00 0.00 48 1014.2
20260510025603 52 223 0.0 1.7 0.00 0.00 0.00 48 1014.1
20260510025507 52 223 0.0 1.7 0.00 0.00 0.00 47 1014.2
20260510025306 52 221 0.0 1.7 0.00 0.00 0.00 47 1014.1
20260510025101 52 221 0.0 1.7 0.00 0.00 0.00 46 1014.0
20260510024906 52 221 0.0 1.7 0.00 0.00 0.00 47 1014.0
20260510024705 52 221 0.0 1.7 0.00 0.00 0.00 47 1014.0
20260510024601 52 221 0.0 1.7 0.00 0.00 0.00 47 1013.9
20260510024505 52 221 0.0 1.7 0.00 0.00 0.00 47 1014.0
20260510024359 52 221 0.0 1.7 0.00 0.00 0.00 47 1013.9
20260510024101 52 221 0.0 1.7 0.00 0.00 0.00 47 1013.9
20260510023904 52 221 0.0 1.7 0.00 0.00 0.00 46 1013.9
20260510023704 52 221 0.0 1.7 0.00 0.00 0.00 47 1013.8
20260510023602 53 221 0.0 1.7 0.00 0.00 0.00 47 1013.8
20260510023536 53 221 0.0 1.7 0.00 0.00 0.00 47 1013.7
20260510023302 53 221 0.0 1.7 0.00 0.00 0.00 46 1013.7
20260510023103 53 221 0.0 0.9 0.00 0.00 0.00 46 1013.6
20260510023000 53 221 0.0 1.7 0.00 0.00 0.00 46 1013.6
20260510022705 53 221 0.0 1.7 0.00 0.00 0.00 45 1013.5
20260510022603 53 221 0.0 1.7 0.00 0.00 0.00 45 1013.5
20260510022502 53 221 0.0 1.7 0.00 0.00 0.00 45 1013.5
20260510022257 53 221 0.0 1.7 0.00 0.00 0.00 46 1013.4
20260510022106 53 221 0.0 1.7 0.00 0.00 0.00 46 1013.3
20260510022058 53 221 0.0 1.7 0.00 0.00 0.00 46 1013.3
20260510021856 53 220 0.0 1.7 0.00 0.00 0.00 47 1013.4
20260510021653 53 221 0.0 1.7 0.00 0.00 0.00 45 1013.3
20260510021602 53 221 0.0 1.7 0.00 0.00 0.00 45 1013.3
20260510021453 53 221 0.0 1.7 0.00 0.00 0.00 45 1013.3
20260510021359 53 223 0.0 1.7 0.00 0.00 0.00 46 1013.3
20260510021102 53 186 0.0 1.7 0.00 0.00 0.00 46 1013.1
20260510021052 53 186 0.0 1.7 0.00 0.00 0.00 46 1013.1
20260510020852 53 186 0.0 1.7 0.00 0.00 0.00 46 1013.0
20260510020639 53 186 0.0 1.7 0.00 0.00 0.00 46 1013.1
20260510020556 53 186 0.0 1.7 0.00 0.00 0.00 46 1013.1
20260510020432 53 186 0.0 1.7 0.00 0.00 0.00 45 1013.0
20260510020230 53 186 0.0 1.7 0.00 0.00 0.00 44 1012.9
20260510020030 53 186 0.0 1.7 0.00 0.00 0.00 46 1012.9
20260510015831 53 186 0.0 1.7 0.00 0.00 0.00 45 1012.8
20260510015728 53 186 0.0 1.7 0.00 0.00 0.00 45 1012.8
20260510015556 53 186 0.0 1.7 0.00 0.00 0.00 45 1012.8
20260510015430 54 182 0.0 1.7 0.00 0.00 0.00 44 1012.7
20260510015230 54 182 0.0 0.9 0.00 0.00 0.00 44 1012.7
20260510015136 54 182 0.0 0.9 0.00 0.00 0.00 44 1012.6
20260510015052 54 182 0.0 0.9 0.00 0.00 0.00 44 1012.7
20260510014912 54 182 0.0 0.9 0.00 0.00 0.00 43 1012.6
20260510014854 54 182 0.0 0.9 0.00 0.00 0.00 44 1012.6
20260510014820 54 182 0.0 0.9 0.00 0.00 0.00 45 1012.6
20260510014432 54 182 0.0 2.6 0.00 0.00 0.00 43 1012.6
20260510014359 54 182 0.0 2.6 0.00 0.00 0.00 44 1012.5
20260510014334 54 182 0.0 2.6 0.00 0.00 0.00 42 1012.5
20260510014031 54 183 0.0 2.6 0.00 0.00 0.00 45 1012.6
20260510013832 54 127 0.0 2.6 0.00 0.00 0.00 45 1012.5
20260510013622 54 127 0.0 2.6 0.00 0.00 0.00 44 1012.5
20260510013552 54 127 0.0 2.6 0.00 0.00 0.00 44 1012.5
20260510013518 55 152 0.0 1.7 0.00 0.00 0.00 42 1012.4
20260510013403 55 144 0.0 1.7 0.00 0.00 0.00 43 1012.5
20260510013327 55 144 0.0 1.7 0.00 0.00 0.00 43 1012.5
20260510013027 55 144 0.0 1.7 0.00 0.00 0.00 43 1012.4
20260510012820 55 144 0.0 1.7 0.00 0.00 0.00 44 1012.3
20260510012619 55 144 0.0 1.7 0.00 0.00 0.00 42 1012.4
20260510012549 55 144 0.0 1.7 0.00 0.00 0.00 42 1012.4
20260510012420 55 144 0.0 2.6 0.00 0.00 0.00 43 1012.3
20260510012404 55 247 0.0 2.6 0.00 0.00 0.00 42 1012.3
20260510012330 55 140 0.0 2.6 0.00 0.00 0.00 43 1012.3
20260510012019 55 247 0.0 2.6 0.00 0.00 0.00 42 1012.2
20260510011916 56 247 0.0 4.3 0.00 0.00 0.00 41 1012.2
20260510011621 56 247 0.0 4.3 0.00 0.00 0.00 42 1012.2
20260510011549 56 247 0.0 4.3 0.00 0.00 0.00 40 1012.2
20260510011423 56 224 0.0 4.3 0.00 0.00 0.00 41 1012.1
20260510011221 56 224 0.0 4.3 0.00 0.00 0.00 40 1012.1
20260510011049 56 224 0.0 4.3 0.00 0.00 0.00 40 1012.1
20260510011016 56 226 0.0 4.3 0.00 0.00 0.00 40 1012.1
20260510010819 56 200 0.0 4.3 0.00 0.00 0.00 42 1012.0
20260510010612 56 247 0.0 4.3 0.00 0.00 0.00 40 1012.0
20260510010550 56 247 0.0 4.3 0.00 0.00 0.00 40 1012.0
20260510010511 56 258 0.0 4.3 0.00 0.00 0.00 40 1012.1
20260510010357 56 44 0.0 4.3 0.00 0.00 0.00 39 1012.0
20260510010328 56 44 0.0 3.5 0.00 0.00 0.00 40 1012.0
20260510010011 56 44 0.0 4.3 0.00 0.00 0.00 40 1011.9
20260510005818 57 92 0.0 4.3 0.00 0.00 0.00 39 1012.0
20260510005605 57 334 0.0 4.3 0.00 0.00 0.00 39 1012.0
20260510005552 57 334 0.0 4.3 0.00 0.00 0.00 39 1012.0
20260510005404 57 188 0.0 4.3 0.00 0.00 0.00 40 1011.9
20260510005357 57 100 0.0 6.1 0.00 0.00 0.00 39 1011.9
20260510005325 57 111 0.0 6.1 0.00 0.00 0.00 39 1011.8
20260510005004 57 94 0.0 6.1 0.00 0.00 0.00 40 1011.9
20260510004906 57 182 0.0 12.2 0.00 0.00 0.00 38 1011.8
20260510004604 57 244 0.0 12.2 0.00 0.00 0.00 39 1011.7
20260510004548 57 244 0.0 12.2 0.00 0.00 0.00 39 1011.7
20260510004404 58 212 0.0 12.2 0.00 0.00 0.00 39 1011.7
20260510004348 58 24 0.0 12.2 0.00 0.00 0.00 39 1011.7
20260510004323 58 221 0.0 12.2 0.00 0.00 0.00 39 1011.8
20260510004003 58 238 0.0 12.2 0.00 0.00 0.00 37 1011.7
20260510003805 58 240 0.0 5.2 0.00 0.00 0.00 36 1011.7
20260510003602 58 133 0.0 3.5 0.00 0.00 0.00 38 1011.8
20260510003547 58 212 0.0 3.5 0.00 0.00 0.00 39 1011.7
20260510003402 58 234 0.0 3.5 0.00 0.00 0.00 38 1011.6
20260510003349 58 286 0.0 3.5 0.00 0.00 0.00 38 1011.6
20260510003324 58 234 0.0 3.5 0.00 0.00 0.00 38 1011.7
20260510003008 58 264 0.0 5.2 0.00 0.00 0.00 38 1011.6
20260510002757 58 251 0.0 5.2 0.00 0.00 0.00 38 1011.5
20260510002704 58 275 0.0 5.2 0.00 0.00 0.00 36 1011.6
20260510002549 58 275 0.0 5.2 0.00 0.00 0.00 36 1011.5
20260510002353 58 155 0.0 5.2 0.00 0.00 0.00 37 1011.5
20260510002157 58 216 0.0 5.2 0.00 0.00 0.00 39 1011.5
20260510002045 58 233 0.0 5.2 0.00 0.00 0.00 38 1011.5
20260510001955 58 189 0.0 5.2 0.00 0.00 0.00 39 1011.5
20260510001802 58 188 0.0 5.2 0.00 0.00 0.00 39 1011.5
20260510001557 59 203 0.0 5.2 0.00 0.00 0.00 39 1011.4
20260510001544 59 203 0.0 5.2 0.00 0.00 0.00 39 1011.5
20260510001353 59 183 0.0 5.2 0.00 0.00 0.00 39 1011.4
20260510001154 59 234 0.0 5.2 0.00 0.00 0.00 37 1011.4
20260510001058 59 244 0.0 5.2 0.00 0.00 0.00 36 1011.4
20260510001045 59 251 0.0 5.2 0.00 0.00 0.00 35 1011.4
20260510000752 59 258 0.0 5.2 0.00 0.00 0.00 36 1011.4
20260510000601 59 178 0.0 5.2 0.00 0.00 0.00 37 1011.5
20260510000546 59 176 0.0 5.2 0.00 0.00 0.00 37 1011.4
20260510000356 59 47 0.0 5.2 0.00 0.00 0.00 35 1011.2
20260510000148 59 224 0.0 6.1 0.00 0.00 0.00 37 1011.4
20260510000045 59 250 0.0 6.1 0.00 0.00 0.00 37 1011.2
20260509235948 59 234 0.0 6.1 0.00 0.00 0.00 37 1011.2
20260509235748 59 248 0.0 6.1 0.00 0.00 0.00 37 1011.2
20260509235546 59 223 0.0 6.1 0.00 0.00 0.00 38 1011.1
20260509235452 59 224 0.0 6.1 0.00 0.00 0.00 37 1011.2
20260509235146 60 251 0.0 6.1 0.00 0.00 0.00 38 1011.2
20260509235043 60 254 0.0 6.1 0.00 0.00 0.00 37 1011.2
20260509234949 60 233 0.0 4.3 0.00 0.00 0.00 35 1011.1
20260509234745 60 48 0.0 4.3 0.00 0.00 0.00 35 1011.2
20260509234654 60 178 0.0 4.3 0.00 0.00 0.00 35 1011.1
20260509234541 60 178 0.0 4.3 0.00 0.00 0.00 35 1011.1
20260509234345 60 178 0.0 4.3 0.00 0.00 0.00 38 1011.1
20260509234141 60 178 0.0 4.3 0.00 0.00 0.00 35 1011.0
20260509234039 60 190 0.0 6.1 0.00 0.00 0.00 36 1011.0
20260509233937 60 23 0.0 6.1 0.00 0.00 0.00 36 1010.9
20260509233736 60 165 0.0 6.1 0.00 0.00 0.00 35 1011.0
20260509233536 60 164 0.0 6.1 0.00 0.00 0.00 35 1010.9
20260509233337 60 214 0.0 6.1 0.00 0.00 0.00 36 1010.9
20260509233135 60 68 0.0 6.1 0.00 0.00 0.00 35 1010.9
20260509233039 60 272 0.0 6.1 0.00 0.00 0.00 36 1010.9
20260509233033 60 0 0.0 4.3 0.00 0.00 0.00 36 1010.9
20260509232734 61 87 0.0 4.3 0.00 0.00 0.00 36 1010.9
20260509232531 61 182 0.0 4.3 0.00 0.00 0.00 36 1010.7
20260509232330 61 257 0.0 4.3 0.00 0.00 0.00 36 1010.8
20260509232130 61 255 0.0 4.3 0.00 0.00 0.00 40 1010.8
20260509232036 61 255 0.0 4.3 0.00 0.00 0.00 39 1010.9
20260509231930 61 255 0.0 4.3 0.00 0.00 0.00 37 1010.9
20260509231729 61 258 0.0 5.2 0.00 0.00 0.00 36 1010.8
20260509231536 61 117 0.0 5.2 0.00 0.00 0.00 38 1010.7
20260509231532 61 107 0.0 5.2 0.00 0.00 0.00 38 1010.7
20260509231428 61 45 0.0 8.7 0.00 0.00 0.00 38 1010.8
20260509231129 61 171 0.0 8.7 0.00 0.00 0.00 37 1010.7
20260509231033 61 141 0.0 8.7 0.00 0.00 0.00 37 1010.6
20260509230931 61 8 0.0 8.7 0.00 0.00 0.00 34 1010.7
20260509230917 61 45 0.0 8.7 0.00 0.00 0.00 34 1010.7
20260509230831 62 228 0.0 8.7 0.00 0.00 0.00 35 1010.7
20260509230532 62 228 0.0 8.7 0.00 0.00 0.00 35 1010.7
20260509230332 61 228 0.0 4.3 0.00 0.00 0.00 38 1010.5
20260509230327 62 245 0.0 6.1 0.00 0.00 0.00 35 1010.7
20260509230257 62 228 0.0 4.3 0.00 0.00 0.00 38 1010.5
20260509225921 61 221 0.0 4.3 0.00 0.00 0.00 37 1010.5
20260509225721 61 213 0.0 5.2 0.00 0.00 0.00 36 1010.5
20260509225529 61 227 0.0 5.2 0.00 0.00 0.00 36 1010.6
20260509225521 61 223 0.0 5.2 0.00 0.00 0.00 36 1010.6
20260509225355 62 340 0.0 5.2 0.00 0.00 0.00 35 1010.5
20260509225329 62 340 0.0 5.2 0.00 0.00 0.00 34 1010.4
20260509225323 61 0 0.0 5.2 0.00 0.00 0.00 34 1010.5
20260509224915 62 6 0.0 5.2 0.00 0.00 0.00 35 1010.5
20260509224715 62 3 0.0 4.3 0.00 0.00 0.00 36 1010.4
20260509224529 62 290 0.0 6.1 0.00 0.00 0.00 36 1010.5
20260509224513 62 247 0.0 6.1 0.00 0.00 0.00 36 1010.5
20260509224335 61 166 0.0 6.1 0.00 0.00 0.00 39 1010.2
20260509224326 61 176 0.0 6.1 0.00 0.00 0.00 35 1010.3
20260509224255 61 87 0.0 6.1 0.00 0.00 0.00 36 1010.3
20260509223914 61 8 0.0 7.8 0.00 0.00 0.00 37 1010.3
20260509223712 61 1 0.0 7.8 0.00 0.00 0.00 34 1010.3
20260509223608 61 6 0.0 7.8 0.00 0.00 0.00 35 1010.3
20260509223526 61 344 0.0 7.8 0.00 0.00 0.00 35 1010.3
20260509223327 62 37 0.0 7.8 0.00 0.00 0.00 34 1010.3
20260509223321 62 341 0.0 7.8 0.00 0.00 0.00 33 1010.4
20260509223251 62 75 0.0 7.8 0.00 0.00 0.00 34 1010.2
20260509222909 62 293 0.0 6.1 0.00 0.00 0.00 35 1010.3
20260509222711 62 254 0.0 8.7 0.00 0.00 0.00 38 1010.2
20260509222510 62 248 0.0 8.7 0.00 0.00 0.00 37 1010.2
20260509222309 62 197 0.0 8.7 0.00 0.00 0.00 35 1010.2
20260509222205 62 250 0.0 8.7 0.00 0.00 0.00 36 1010.2
20260509222025 62 264 0.0 8.7 0.00 0.00 0.00 35 1010.1
20260509221908 62 255 0.0 8.7 0.00 0.00 0.00 36 1010.2
20260509221825 62 306 0.0 6.1 0.00 0.00 0.00 35 1010.1
20260509221804 62 141 0.0 8.7 0.00 0.00 0.00 35 1010.1
20260509221505 62 306 0.0 6.1 0.00 0.00 0.00 35 1010.1